Athol, MA

8:16 PM EST on February 20, 2017 (GMT -0500)
Orange Municipal

Weather History for KORE - October, 2013

Change the Weather History Date:

Sunday, October 13, 2013

  Actual Average Record
Temperature  
Mean Temperature 50 °F -  
Max Temperature 57 °F 59 °F 73 °F (2000)
Min Temperature 42 °F 35 °F 21 °F (2012)
Degree Days  
Heating Degree Days 16    
Moisture  
Dew Point 45 °F    
Average Humidity 81    
Maximum Humidity 100    
Minimum Humidity 62    
Precipitation  
Precipitation 0.00 in - - ()
Sea Level Pressure  
Sea Level Pressure 30.42 in    
Wind  
Wind Speed 3 mph (ENE)    
Max Wind Speed 7 mph    
Max Gust Speed -    
Visibility 10 miles    
Events      
Averages and records for this station are not official NWS values.
T = Trace of Precipitation, MM = Missing Value Source: NWS Daily Summary

Daily Weather History Graph

Daily Weather History Graph

Search for Another Location

Airport or City:

Trip Planner

Search our weather history database for the weather conditions in past years. The results will help you decide how hot, cold, wet, or windy it might be!

Date:

Astronomy

Oct. 13, 2013 Rise Set
Actual Time 7:00 AM EDT 6:09 PM EDT
Civil Twilight 6:31 AM EDT 6:38 PM EDT
Nautical Twilight 5:59 AM EDT 7:10 PM EDT
Astronomical Twilight 5:26 AM EDT 7:43 PM EDT
Moon 3:05 PM EDT (10/13) 12:59 AM EDT (10/13)
Length of Visible Light 12h 06m
Length of Day
11h 09m
Waxing Gibbous, 69% of the Moon is Illuminated
Oct 13
Waxing Gibbous
Oct 18
Full
Oct 26
Last Quarter
Nov 3
New
Nov 10
First Quarter

Hourly Weather History & Observations

Time (EDT) Temp. Windchill Dew Point Humidity Pressure Visibility Wind Dir Wind Speed Gust Speed Precip Events Conditions
12:52 AM 52.0 °F - 46.9 °F 83% 30.40 in 10.0 mi ESE 4.6 mph - N/A   Overcast
1:35 AM 51.8 °F - 46.4 °F 82% 30.39 in 10.0 mi East 3.5 mph - N/A   Overcast
1:52 AM 52.0 °F - 46.9 °F 83% 30.40 in 10.0 mi NNE 3.5 mph - N/A   Overcast
2:33 AM 51.8 °F - 46.4 °F 82% 30.38 in 10.0 mi NE 3.5 mph - N/A   Overcast
2:52 AM 52.0 °F - 46.9 °F 83% 30.38 in 10.0 mi ENE 3.5 mph - N/A   Overcast
3:52 AM 51.1 °F - 45.0 °F 80% 30.39 in 10.0 mi NE 4.6 mph - N/A   Overcast
4:52 AM 48.9 °F - 44.1 °F 83% 30.40 in 10.0 mi Calm Calm - N/A   Mostly Cloudy
5:04 AM 48.2 °F - 44.6 °F 87% 30.39 in 10.0 mi NE 4.6 mph - N/A   Scattered Clouds
5:36 AM 46.4 °F - 44.6 °F 93% 30.39 in 10.0 mi Calm Calm - N/A   Mostly Cloudy
5:52 AM 46.0 °F - 44.1 °F 93% 30.41 in 10.0 mi Calm Calm - N/A   Mostly Cloudy
6:49 AM 44.6 °F - 42.8 °F 93% 30.41 in 10.0 mi Calm Calm - N/A   Mostly Cloudy
6:52 AM 44.1 °F 42.5 °F 42.1 °F 93% 30.42 in 10.0 mi NNW 3.5 mph - N/A   Mostly Cloudy
7:07 AM 42.8 °F - 42.8 °F 100% 30.41 in 10.0 mi Calm Calm - N/A   Scattered Clouds
7:52 AM 46.0 °F - 44.1 °F 93% 30.44 in 10.0 mi Calm Calm - N/A   Clear
8:52 AM 50.0 °F - 45.0 °F 83% 30.45 in 10.0 mi NE 4.6 mph - N/A   Mostly Cloudy
9:13 AM 51.8 °F - 44.6 °F 76% 30.44 in 10.0 mi NNE 3.5 mph - N/A   Overcast
9:48 AM 53.6 °F - 44.6 °F 72% 30.44 in 10.0 mi NE 3.5 mph - N/A   Scattered Clouds
9:52 AM 52.0 °F - 45.0 °F 77% 30.45 in 10.0 mi NNE 3.5 mph - N/A   Scattered Clouds
10:17 AM 53.6 °F - 44.6 °F 72% 30.44 in 10.0 mi Calm Calm - N/A   Mostly Cloudy
10:38 AM 55.4 °F - 44.6 °F 67% 30.44 in 10.0 mi Calm Calm - N/A   Scattered Clouds
10:49 AM 55.4 °F - 44.6 °F 67% 30.44 in 10.0 mi Variable 4.6 mph - N/A   Mostly Cloudy
10:52 AM 57.0 °F - 45.0 °F 64% 30.45 in 10.0 mi ENE 4.6 mph - N/A   Mostly Cloudy
11:52 AM 57.9 °F - 45.0 °F 62% 30.45 in 10.0 mi NE 6.9 mph - N/A   Overcast
12:52 PM 57.0 °F - 45.0 °F 64% 30.43 in 10.0 mi ESE 5.8 mph - N/A   Overcast
1:52 PM 57.0 °F - 45.0 °F 64% 30.42 in 10.0 mi East 5.8 mph - N/A   Overcast
2:52 PM 55.9 °F - 46.0 °F 69% 30.42 in 10.0 mi East 6.9 mph - N/A   Overcast
3:52 PM 55.9 °F - 46.0 °F 69% 30.41 in 10.0 mi East 4.6 mph - N/A   Overcast
4:52 PM 55.9 °F - 46.9 °F 72% 30.40 in 10.0 mi ESE 3.5 mph - N/A   Overcast
5:52 PM 55.0 °F - 46.9 °F 74% 30.39 in 10.0 mi East 3.5 mph - N/A   Overcast
6:52 PM 55.0 °F - 46.9 °F 74% 30.41 in 10.0 mi Calm Calm - N/A   Overcast
7:42 PM 51.8 °F - 46.4 °F 82% 30.40 in 10.0 mi Calm Calm - N/A   Scattered Clouds
7:52 PM 50.0 °F - 46.0 °F 86% 30.41 in 10.0 mi Calm Calm - N/A   Clear
8:52 PM 46.0 °F - 44.1 °F 93% 30.42 in 10.0 mi Calm Calm - N/A   Clear
9:40 PM 44.6 °F - 42.8 °F 93% 30.41 in 3.0 mi Calm Calm - N/A   Mostly Cloudy
9:52 PM 45.0 °F - 44.1 °F 97% 30.42 in 9.0 mi Calm Calm - N/A   Overcast
10:52 PM 46.0 °F - 45.0 °F 96% 30.42 in 8.0 mi Calm Calm - N/A   Overcast
11:52 PM 46.0 °F - 45.0 °F 96% 30.41 in 7.0 mi Calm Calm - N/A   Overcast